#timestamp,LO_Frequency,Hit 
1499097615.2,286046961.7,N
1499097635.9,286046961.5,N
1499097655.7,286046964.4,N
1499097675.6,286046961.7,N
1499097695.4,286046961.5,N
1499097715.2,286046962.5,N
1499097735.1,286046961.6,N
1499097736.0,286046961.6,N
1499097755.8,286046962.0,N
1499097775.6,286046962.6,N
1499097795.5,286046961.5,N
1499097815.3,286046962.5,N
1499097835.1,286046962.2,N
1499097855.8,286046962.6,N
1499097875.7,286046962.2,N
1499097895.5,286046961.4,N
1499097915.3,286046962.6,N
1499097935.2,286046962.7,N
1499097955.0,286046959.8,N
1499097955.9,286046959.8,N
1499097975.7,286046960.3,N
1499097995.6,286046960.2,N
1499098015.4,286046960.5,N
1499098035.2,286046959.9,N
1499098055.1,286046959.8,N
1499098056.0,286046959.8,N
1499098075.8,286046959.9,N
1499098095.6,286046960.4,N
1499098115.5,286046960.8,N
1499098135.3,286046961.0,N
1499098155.1,286046958.3,N
1499098175.9,286046959.5,N
1499098195.7,286046958.8,N
1499098215.5,286046959.0,N
1499098235.3,286046961.2,N
1499098255.2,286046960.5,N
1499098275.0,286046961.0,N
1499098275.9,286046961.0,N
1499098295.8,286046961.1,N
1499098315.6,286046958.9,N
1499098335.4,286046958.1,N
1499098355.3,286046958.1,N
1499098375.1,286046956.5,N
1499098376.0,286046956.5,N
1499098395.8,286046958.8,N
1499098415.6,286046959.3,N
1499098435.5,286046959.0,N
1499098455.3,286046959.6,N
1499098475.1,286046959.6,N
1499098495.9,286046957.2,N
1499098515.7,286046956.5,N
1499098535.5,286046957.7,N
1499098555.4,286046956.9,N
1499098575.2,286046957.7,N
1499098595.0,286046957.4,N
1499098595.9,286046957.4,N
1499098615.8,286046956.7,N
1499098635.6,286046959.4,N
1499098655.4,286046958.6,N
1499098675.3,286046956.5,N
1499098695.1,286046960.7,N
1499098696.0,286046960.7,N
1499098715.8,286046958.2,N
1499098735.6,286046958.7,N
1499098755.5,286046958.5,N
1499098775.3,286046956.6,N
1499098795.2,286046956.5,Y
1499098815.9,286046990.5,N
1499098835.7,286046992.8,N
1499098855.5,286046992.8,N
1499098875.4,286046992.7,N
1499098895.2,286046992.7,N
1499098915.0,286046990.4,N
1499098915.9,286046990.4,N
1499098935.8,286046990.2,N
1499098955.6,286046990.8,N
1499098975.4,286046990.8,N
1499098995.3,286046991.0,N
1499099015.1,286046990.2,N
1499099016.0,286046990.2,N
1499099035.8,286046991.4,N
1499099055.7,286046990.6,N
1499099075.5,286046990.3,N
1499099095.3,286046990.5,N
1499099115.2,286046993.0,N
1499099135.9,286046993.2,N
1499099155.7,286046991.3,N
1499099175.6,286046988.6,N
1499099195.4,286046993.1,N
1499099215.2,286046990.1,N
1499099235.0,286046992.5,N
1499099235.9,286046992.5,N
1499099255.8,286046991.0,N
1499099275.6,286046991.3,N
1499099295.4,286046991.2,N
1499099315.3,286046990.2,N
1499099335.1,286046990.1,N
1499099355.8,286046990.5,N
1499099375.7,286046990.5,N
1499099395.5,286046990.4,N
1499099415.3,286046991.3,N
1499099435.2,286046991.1,N
1499099455.9,286046990.8,N
1499099475.7,286046988.8,N
1499099495.6,286046991.3,N
1499099515.4,286046991.1,N
1499099535.2,286046991.0,N
1499099555.1,286046990.4,N
1499099556.0,286046990.4,N
1499099575.8,286046990.8,N
1499099595.6,286046990.3,N
1499099615.4,286046991.0,N
1499099635.3,286046990.6,N
1499099655.1,286046991.0,N
1499099675.8,286046990.4,N
1499099695.7,286046990.7,N
1499099715.5,286046990.7,N
1499099735.3,286046990.9,N
1499099755.2,286046990.4,N
1499099775.9,286046990.7,N
1499099795.7,286046990.7,N
1499099815.6,286046990.4,N
1499099835.4,286046990.8,N
1499099855.2,286046990.3,N
1499099875.1,286046990.3,N
1499099876.0,286046990.3,N
1499099895.8,286046991.4,N
1499099915.6,286046991.1,N
1499099935.5,286046991.2,N
1499099955.3,286046988.6,N
1499099975.1,286046989.7,N
1499099995.9,286046989.5,N
1499100015.7,286046989.5,N
1499100035.5,286046987.0,N
1499100055.3,286046990.0,N
1499100075.2,286046991.0,N
1499100095.0,286046990.5,N
1499100095.9,286046990.5,N
1499100115.7,286046990.2,N
1499100135.6,286046990.3,N
1499100155.4,286046990.2,N
1499100175.2,286046990.8,N
1499100195.1,286046991.2,N
1499100196.0,286046991.2,N
1499100215.8,286046990.9,N
1499100235.6,286046990.7,N
1499100255.5,286046991.6,N
1499100275.3,286046988.9,N
1499100295.1,286046988.8,N
1499100315.9,286046988.7,N
1499100335.7,286046989.4,N
1499100355.5,286046988.9,N
1499100375.3,286046989.1,N
1499100395.2,286046988.6,N
1499100415.0,286046989.0,N
1499100415.9,286046989.0,N
1499100435.7,286046989.4,N
1499100455.6,286046991.5,N
1499100475.4,286046989.1,N
1499100495.2,286046991.2,N
1499100515.1,286046989.3,N
1499100516.0,286046989.3,N
1499100535.8,286046991.3,N
1499100555.6,286046993.2,N
1499100575.5,286046990.8,N
1499100595.3,286046990.7,N
1499100615.1,286046988.7,N
1499100635.9,286046991.0,N
1499100655.7,286046988.8,N
1499100675.5,286046991.2,N
1499100695.4,286046991.2,N
1499100715.2,286046991.4,N
1499100735.0,286046990.5,N
1499100735.9,286046990.5,N
1499100755.8,286046992.7,N
1499100775.6,286046992.3,N
1499100795.4,286046990.8,N
1499100815.2,286046992.8,N
1499100835.1,286046990.1,N
1499100836.0,286046990.1,N
1499100855.8,286046992.6,N
1499100875.6,286046990.3,N
1499100895.5,286046990.8,N
1499100915.3,286046992.1,N
1499100935.1,286046994.3,N
1499100955.9,286046992.6,N
1499100975.7,286046994.4,N
1499100995.5,286046992.2,N
1499101015.4,286046994.0,N
1499101035.2,286046991.7,N
1499101055.0,286046994.1,N
1499101055.9,286046994.1,N
1499101075.8,286046994.2,N
1499101095.6,286046994.6,N
1499101115.4,286046993.6,N
1499101135.3,286046996.4,N
1499101155.1,286046993.9,N
1499101156.0,286046993.9,N
1499101175.8,286046994.0,N
1499101195.6,286046992.9,N
